CAPE
0 110 885 1200 2196 2012 1425 1489 1707 1649 1613 1862 1677 1528 1582 1743 1741 1721 1695 1704 1538 1730 1018 956 1764 1663 1768 1628 1481 1554 1829 1719 1518 1639 1509 2010 1602 1860 1598 1433 1510 1428 1475
0 481 1216 1532 2564 1919 1579 1497 1666 1598 1578 1676 1673 1517 1458 1753 1645 1716 1658 1624 1327 739 769 1503 1738 1647 1639 1414 1335 1770 1694 1327 1244 1545 1608 1774 1705 1519 1725 1580 1383 1494 1796
319 966 1329 2049 2483 1909 1795 1651 1627 1591 1446 1587 1578 1481 1512 1569 1667 1552 1555 1055 1153 1232 1357 1584 1695 1725 1583 1389 1162 997 1345 1645 1669 1308 1367 1273 1418 1414 1357 1572 1579 1601 1585
702 1258 1376 2213 2239 2311 1906 1730 1813 1767 1439 1579 1559 1513 1386 1507 1608 1576 1643 957 639 1891 1659 1578 1702 1584 1652 1499 1430 1064 1383 1188 925 928 1022 1126 1400 1352 1269 1543 1474 1553 1664
1169 1367 1455 1942 1907 1861 1996 1849 1804 1606 1409 1571 1731 1570 1246 1618 1520 1462 1681 1692 933 1520 1639 1675 1519 1405 1405 1366 1351 1639 1685 1408 1428 1117 784 1121 1808 1578 1591 1793 1538 1608 1563
1050 1127 1483 1879 1921 2011 1977 2015 1804 1517 1424 1584 1589 1081 1330 1594 1770 1733 1847 1652 1893 1538 1637 1302 1303 1336 1186 1136 1051 1043 1026 1235 1518 609 719 1283 1346 1385 1631 1169 1305 1446 1430
741 878 1609 2140 1803 2012 2121 2030 1755 1388 1513 1435 1232 1217 1718 1446 1680 1592 1601 1692 1858 1888 1677 1636 1343 1303 1258 942 925 818 1098 1316 919 745 770 1435 1298 1756 1486 1499 819 903 1523
490 1076 1714 1919 1952 2066 1906 1983 1772 1741 1606 1448 1291 1481 1636 1540 1556 1762 1621 1562 1709 1746 1569 1425 1317 1279 1156 969 794 972 1179 1236 793 698 755 981 1306 1802 1530 1325 1440 1396 906
669 1214 1787 1858 1995 2093 1994 1974 1964 1871 1754 1440 1516 2108 1446 1729 1899 1713 1462 1424 1333 1259 1110 1060 1081 1397 1153 896 681 947 1047 1381 819 594 520 888 1936 1708 1615 1492 1514 1504 902
832 1215 1728 1675 1883 1855 1587 1855 1771 1799 2027 1372 1489 1815 1350 1592 1406 1685 1567 1440 1367 1258 1482 1320 1261 1198 1252 1182 707 1163 1355 1221 708 683 555 879 2245 1708 1721 1605 1453 1426 1506
590 912 1406 1523 1623 1536 1456 1486 1752 2045 1722 1536 1517 1744 1736 1297 1245 1475 1473 1666 1470 1378 1211 1381 1311 1236 1215 1039 1465 1342 953 813 935 673 757 861 1645 1247 957 1542 1466 1571 1583
313 531 1020 1311 1434 1299 1331 1490 1412 1626 1536 1391 1656 1225 1431 1131 1190 1232 1615 1675 1662 1553 1373 1199 1372 1083 419 79 552 1146 472 447 613 615 611 775 704 326 507 1258 1406 1530 1534
124 290 712 1048 1120 1108 1271 1347 1332 1486 1523 1331 1364 1196 1168 1222 1124 1092 1021 1436 1421 1381 1350 1237 1107 1041 483 3 7 259 301 145 228 269 455 405 554 139 524 575 1288 1450 1453
93 115 501 817 828 754 950 1150 1117 1104 1256 1107 1134 1086 1270 1059 668 604 866 996 1290 1038 895 964 728 732 703 401 50 54 152 339 106 56 113 531 419 308 338 218 376 972 1218
70 33 185 562 505 486 566 935 1043 996 973 964 991 789 850 906 823 816 709 867 861 728 805 769 542 317 275 355 149 73 91 137 221 79 35 107 452 463 383 326 85 595 1127
149 109 79 220 353 397 504 589 872 743 780 508 554 574 661 699 747 851 751 655 768 557 454 435 425 364 349 177 192 225 297 279 135 216 184 121 232 455 391 273 400 187 889
152 209 72 143 357 470 471 461 668 669 509 600 370 420 552 656 760 797 695 655 538 614 395 410 469 320 253 254 351 383 563 592 399 283 208 154 162 327 560 510 371 431 267
180 230 212 251 298 494 585 395 477 503 667 651 817 842 732 823 879 740 785 863 641 559 611 620 547 495 516 569 663 742 784 709 629 490 438 437 325 309 204 1213 984 576 451
244 213 269 307 297 336 611 524 542 464 559 887 949 927 947 977 1024 851 784 874 740 730 728 595 597 583 572 717 797 874 684 611 489 447 503 587 589 321 354 184 838 1236 449
196 271 238 315 360 349 374 560 584 552 424 668 929 1114 1122 955 971 840 1062 886 864 819 831 871 739 777 787 826 753 870 667 674 439 422 529 437 496 470 443 363 188 353 1020
122 220 272 298 394 407 428 566 517 526 404 478 556 559 629 807 829 923 1058 907 788 726 820 674 862 840 817 589 639 866 586 341 268 708 587 552 510 480 457 407 320 169 351
139 171 305 305 326 460 453 618 520 629 483 339 495 827 1060 940 925 907 996 984 996 1005 1039 973 1009 1009 888 697 995 596 445 345 252 407 580 525 371 437 307 284 324 223 97
331 199 273 322 343 416 521 650 660 572 754 693 778 956 1138 1288 1050 900 1085 1135 1214 1234 1246 1185 1115 975 1066 858 696 790 684 521 682 537 585 471 549 443 407 425 138 205 223
353 377 247 317 334 404 496 695 689 662 652 705 925 1143 1356 1095 1269 1427 1410 1362 1388 1369 1299 1151 1202 1222 1149 1248 1318 1225 1153 1055 899 881 575 522 575 364 238 325 414 165 149
350 446 432 426 540 414 512 501 576 599 709 692 959 1308 1301 1281 1099 1202 1376 1455 1476 1489 1571 1537 1472 1395 1486 1430 1527 1466 1307 777 579 420 480 591 543 437 238 166 210 275 239
309 384 499 496 541 649 662 624 581 716 646 756 815 1090 1310 1263 1222 1222 1484 1553 1583 1628 1747 1774 1597 1508 1532 1585 1497 1019 1034 1025 788 612 677 713 623 437 198 156 230 325 255
CIN
-0 -76 -6 -1 -0 -0 -0 -0 -0 -0 -0 -0 -0 -0 -0 -0 -0 -0 -0 -0 -0 -0 -0 -1 -0 -0 -0 -0 -0 -0 -0 -0 -0 -0 -0 -0 -0 -0 -0 -0 -0 -0 -0
-0 -53 -0 -0 -0 -0 -0 -0 -0 -0 -0 -0 -0 -0 -0 -0 -0 -0 -0 -0 -0 -1 -1 -0 -0 -0 -0 -0 -0 -0 -0 -0 -0 -0 -0 -0 -0 -0 -0 -0 -0 -0 -0
-137 -22 -1 -0 -0 -0 -0 -0 -0 -0 -0 -0 -0 -0 -0 -0 -0 -0 -0 -0 -0 -0 -0 -0 -0 -0 -0 -0 -0 -3 -0 -0 -0 -0 -0 -12 -4 -0 -0 -0 -0 -0 -0
-92 -26 -6 -0 -0 -0 -0 -0 -0 -0 -0 -0 -0 -0 -0 -0 -0 -0 -0 -0 -8 -0 -0 -0 -0 -0 -0 -0 -0 -1 -0 -0 -10 -7 -16 -11 -1 -0 -0 -0 -0 -0 -0
-37 -15 -3 -1 -0 -0 -0 -0 -0 -0 -0 -0 -0 -0 -0 -0 -0 -0 -0 -0 -0 -0 -0 -0 -0 -0 -0 -0 -0 -0 -1 -0 -0 -9 -36 -20 -4 -0 -0 -0 -0 -0 -0
-48 -29 -3 -0 -0 -0 -0 -0 -0 -0 -0 -0 -0 -0 -0 -0 -0 -0 -0 -0 -0 -0 -0 -0 -0 -0 -0 -0 -1 -1 -5 -2 -1 -39 -27 -13 -10 -0 -0 -0 -0 -0 -0
-88 -61 -2 -0 -0 -0 -0 -0 -0 -0 -0 -0 -0 -0 -0 -0 -0 -0 -0 -0 -0 -0 -0 -0 -0 -0 -2 -4 -3 -7 -5 -7 -37 -48 -38 -14 -11 -0 -0 -0 -2 -0 -0
-132 -38 -0 -0 -0 -0 -0 -0 -0 -0 -0 -0 -0 -0 -0 -0 -0 -0 -0 -0 -0 -0 -0 -0 -0 -1 -2 -11 -13 -14 -12 -20 -65 -77 -42 -23 -11 -0 -0 -0 -0 -0 -1
-97 -27 -0 -0 -1 -0 -0 -0 -0 -0 -0 -0 -0 -0 -0 -0 -0 -0 -0 -0 -0 -0 -2 -1 -9 -0 -2 -8 -25 -17 -12 -18 -67 -73 -45 -31 -3 -0 -0 -0 -0 -0 -2
-66 -27 -0 -2 -0 -0 -1 -0 -0 -0 -0 -0 -0 -0 -0 -0 -0 -0 -0 -0 -0 -0 -0 -0 -0 -1 -2 -6 -31 -16 -16 -19 -55 -67 -73 -51 -1 -0 -0 -0 -0 -0 -0
-95 -50 -7 -8 -8 -5 -0 -1 -0 -0 -0 -0 -0 -0 -0 -1 -0 -3 -2 -0 -0 -0 -3 -1 -5 -7 -7 -11 -5 -8 -33 -69 -61 -71 -58 -38 -6 -2 -0 -0 -0 -0 -0
-176 -135 -49 -22 -24 -17 -9 -7 -2 -0 -0 -0 -1 -1 -0 -6 -2 -1 -3 -0 -0 -0 -3 -11 -4 -7 -46 -101 -40 -25 -63 -68 -62 -70 -58 -25 -12 -8 -0 -0 -1 -0 -0
-274 -211 -127 -66 -37 -32 -20 -19 -7 -0 -0 -1 -4 -7 -12 -13 -17 -19 -25 -3 -0 -1 -6 -14 -19 -26 -38 -31 -27 -100 -66 -106 -91 -77 -48 -27 -11 -20 -3 -0 -2 -1 -0
-273 -280 -179 -107 -80 -75 -55 -41 -31 -25 -15 -20 -22 -22 -19 -32 -55 -54 -39 -30 -23 -27 -29 -30 -37 -60 -68 -54 -19 -18 -90 -74 -53 -6 -80 -29 -18 -5 -0 -32 -2 -0 -1
-159 -366 -264 -155 -149 -133 -115 -65 -49 -57 -55 -46 -47 -66 -60 -59 -59 -53 -52 -51 -53 -85 -53 -71 -86 -99 -102 -83 -70 -21 -54 -103 -88 -86 -20 -54 -17 -8 -4 -2 -35 -0 -1
-146 -156 -313 -236 -197 -165 -133 -114 -87 -97 -90 -100 -89 -91 -90 -80 -67 -61 -63 -63 -57 -66 -118 -79 -73 -76 -64 -51 -20 -3 -4 -96 -32 -44 -34 -5 -47 -14 -9 -1 -2 -9 -0
-169 -116 -322 -236 -187 -155 -133 -26 -117 -107 -127 -144 -168 -35 -56 -66 -68 -70 -58 -37 -20 -49 -29 -56 -81 -51 -40 -16 -6 -10 -5 -6 -29 -112 -60 -76 -25 -37 -6 -2 -2 -2 -3
-178 -114 -157 -216 -165 -161 -111 -48 -123 -181 -124 -113 -104 -86 -78 -68 -61 -50 -28 -38 -23 -41 -24 -66 -43 -25 -23 -20 -8 -8 -9 -21 -29 -41 -21 -53 -52 -40 -50 -0 -0 -1 -2
-77 -88 -113 -149 -174 -148 -129 -111 -93 -101 -108 -116 -78 -70 -62 -52 -50 -55 -23 -31 -35 -39 -32 -38 -29 -26 -24 -18 -24 -23 -72 -75 -89 -99 -48 -47 -53 -45 -61 -50 -6 -0 -0
-104 -65 -80 -123 -152 -153 -143 -108 -92 -84 -82 -51 -68 -57 -51 -48 -49 -59 -32 -24 -47 -119 -53 -35 -40 -10 -25 -35 -43 -38 -62 -153 -186 -132 -153 -92 -88 -69 -75 -50 -44 -35 -0
-138 -83 -79 -127 -130 -141 -150 -116 -119 -84 -121 -73 -57 -47 -236 -55 -154 -163 -24 -34 -28 -12 -19 -114 -12 -23 -39 -67 -90 -138 -184 -213 -246 -183 -184 -167 -134 -92 -70 -73 -60 -46 -33
-135 -138 -112 -110 -125 -136 -171 -122 -127 -104 -117 -125 -95 -23 -212 -103 -79 -60 -163 -149 -43 -32 -29 -34 -25 -28 -35 -55 -63 -52 -123 -111 -111 -84 -196 -172 -108 -106 -92 -89 -69 -56 -39
-109 -182 -149 -128 -141 -156 -168 -130 -127 -140 -199 -184 -101 -35 -202 -195 -98 -130 -175 -157 -36 -24 -81 -26 -24 -44 -101 -41 -36 -27 -41 -57 -58 -103 -125 -104 -81 -95 -73 -44 -90 -70 -55
-114 -111 -188 -170 -178 -178 -201 -152 -134 -161 -171 -171 -99 -52 -24 -208 -201 -173 -79 -88 -63 -42 -41 -50 -46 -32 -48 -30 -50 -42 -48 -23 -30 -43 -144 -84 -58 -51 -107 -42 -18 -74 -68
-107 -106 -111 -123 -107 -182 -158 -182 -191 -188 -178 -177 -119 -45 -43 -34 -98 -81 -199 -184 -103 -57 -38 -38 -44 -77 -57 -42 -3 -2 -19 -77 -71 -63 -69 -123 -110 -98 -133 -83 -30 -35 -59
-128 -114 -120 -132 -128 -113 -116 -183 -244 -191 -201 -193 -167 -102 -54 -48 -53 -175 -214 -216 -214 -195 -75 -62 -55 -66 -89 -61 -42 -86 -51 -30 -52 -59 -24 -40 -65 -146 -186 -151 -51 -35 -56
Wind_Speed
nan 6 8 7 10 11 10 7 5 4 5 4 6 6 7 10 11 11 11 11 10 8 7 8 7 8 9 10 12 12 12 12 13 14 15 14 14 12 13 11 9 7 9
nan 5 7 8 8 10 9 8 6 5 6 5 4 6 8 9 10 10 9 10 11 10 11 10 11 11 11 12 12 14 15 16 15 14 13 11 12 12 11 10 10 8 9
7 4 4 6 6 7 9 8 7 8 5 2 4 5 7 7 7 6 10 9 10 11 11 12 12 13 13 12 13 13 13 12 12 12 12 8 6 12 12 11 11 10 10
5 2 3 5 4 6 8 8 9 9 5 4 5 6 9 7 7 7 10 11 11 11 13 13 13 14 15 16 15 13 13 11 10 9 3 6 7 10 11 13 11 11 10
0 2 4 5 5 6 7 9 11 8 6 5 6 7 9 9 7 7 9 12 13 10 14 15 14 14 15 19 23 21 15 13 10 6 4 2 3 10 10 11 13 13 12
3 4 6 7 7 8 10 10 10 8 7 8 7 10 13 14 10 12 14 13 16 16 12 11 15 18 15 18 22 20 15 14 8 8 4 6 3 9 12 10 12 12 12
2 4 9 8 7 10 8 10 11 9 7 7 8 11 9 9 12 13 14 16 17 17 15 13 13 16 15 15 17 18 20 16 3 8 10 3 3 9 10 12 12 11 10
2 3 11 7 8 9 9 11 12 9 7 7 9 13 11 11 12 12 15 15 18 13 12 14 15 18 15 19 17 14 13 13 12 14 17 14 2 8 9 10 12 12 12
6 5 10 10 9 9 11 12 10 7 7 10 11 12 12 12 14 15 15 16 18 18 18 20 24 23 17 15 23 21 17 15 14 17 15 14 22 8 6 8 10 12 12
7 9 10 13 13 11 12 12 12 11 10 10 9 9 12 13 13 12 15 17 17 13 17 20 22 22 23 12 13 16 16 14 18 18 18 15 19 20 9 7 7 10 11
11 11 11 13 12 11 14 16 12 11 10 9 9 11 12 10 12 13 15 19 17 16 16 15 17 15 17 15 16 15 12 16 16 17 17 21 23 25 12 10 5 8 9
16 13 13 12 11 12 13 13 9 11 10 10 10 10 8 9 12 14 16 19 20 16 16 16 17 15 12 nan 13 15 11 14 14 13 16 19 19 19 19 19 9 7 7
16 14 13 12 12 11 11 11 13 13 11 12 11 9 9 8 12 13 13 13 15 18 14 15 15 14 15 nan nan 14 12 15 11 11 14 18 19 23 25 18 18 15 14
nan 14 12 11 11 12 12 11 13 12 11 11 10 10 8 7 8 8 9 11 11 12 11 11 11 14 14 13 nan nan 13 14 10 nan 13 17 22 26 26 20 16 18 16
nan nan 13 10 9 9 11 9 11 13 12 12 9 8 6 5 5 6 7 9 10 10 11 11 12 11 11 11 12 nan nan 12 12 nan nan 17 18 22 23 25 nan 19 23
11 11 nan 12 10 8 9 11 11 11 13 12 10 6 5 3 2 3 5 8 9 8 8 9 9 9 9 9 9 12 14 13 11 13 10 10 19 19 22 23 26 22 22
10 9 nan 9 9 8 8 8 9 8 8 7 7 5 3 3 3 5 5 7 7 8 8 7 7 8 8 8 9 9 8 12 12 14 13 11 11 16 22 23 21 21 21
8 7 6 6 4 5 5 5 6 6 6 4 4 3 3 3 4 4 4 5 6 8 8 8 8 7 9 9 9 9 11 11 13 13 11 11 13 13 14 22 22 20 20
7 5 4 3 5 7 4 4 4 3 5 4 2 1 3 4 6 7 6 6 7 8 9 9 10 10 9 9 9 8 11 13 12 10 11 15 15 21 17 17 19 20 20
6 6 7 5 5 5 2 3 4 4 3 1 1 3 5 4 7 9 9 8 9 10 9 10 9 9 10 11 9 10 8 14 16 16 14 16 18 21 20 21 13 12 19
6 7 9 9 8 8 6 5 4 2 2 3 5 4 8 7 9 11 10 10 9 8 8 9 10 10 12 15 15 14 13 14 13 14 13 15 18 20 21 22 20 17 14
9 11 8 10 10 9 7 7 6 5 2 3 4 4 7 7 10 11 11 9 9 9 8 10 13 12 14 16 18 17 14 12 14 10 13 13 15 17 21 20 21 20 nan
9 11 11 12 11 10 6 6 4 2 1 3 3 4 6 9 11 13 11 10 7 8 8 10 15 18 13 9 14 16 16 21 19 17 13 11 12 15 16 19 21 22 21
13 10 12 10 9 8 8 6 4 4 5 5 7 5 6 11 13 14 13 12 9 7 10 14 17 15 17 16 16 19 18 19 15 15 18 15 12 10 14 18 20 24 22
9 12 13 9 9 6 8 7 4 6 9 7 5 4 4 8 11 13 14 13 10 10 13 19 17 20 21 20 20 21 28 15 9 9 6 11 15 13 14 16 18 22 23
10 12 13 14 15 11 9 8 10 12 12 10 10 11 13 12 11 12 11 10 11 14 18 19 18 18 21 21 22 27 31 26 13 13 15 13 13 11 12 14 19 19 18
Wind_Direction
nan 50 44 57 70 44 50 50 52 49 37 32 4 32 25 20 6 8 11 360 347 337 0 8 5 12 347 340 341 342 342 341 341 352 356 349 343 335 341 332 339 348 320
nan 6 16 46 40 37 42 40 53 60 47 33 9 23 23 14 9 355 347 337 325 337 4 1 355 360 355 346 341 341 338 341 344 349 352 353 342 341 333 339 350 352 333
324 311 24 53 39 42 43 34 39 52 53 53 30 33 38 19 16 350 345 341 338 348 2 6 350 344 349 345 343 340 329 325 334 342 351 15 20 340 342 347 354 347 353
338 305 98 71 62 47 47 42 47 43 32 46 37 43 44 18 10 11 341 331 342 356 351 2 353 351 345 343 334 321 328 334 343 328 355 6 6 351 356 346 344 357 346
117 188 104 65 69 72 54 58 58 49 33 47 32 36 37 20 15 3 356 350 345 1 6 10 2 355 348 345 349 346 335 330 312 311 295 326 2 351 6 344 350 356 343
117 115 79 59 79 72 58 66 70 61 53 55 45 40 37 40 46 50 49 37 35 24 20 18 14 13 355 7 11 20 29 4 359 342 302 321 330 349 356 353 354 348 356
114 113 117 87 75 68 74 78 80 69 65 54 45 52 46 46 60 55 57 60 45 34 40 36 29 29 16 29 33 43 51 41 355 319 340 290 319 336 355 347 352 351 352
207 136 127 90 75 75 83 86 85 69 55 55 55 69 60 44 51 55 55 48 42 42 54 43 26 27 44 49 42 35 45 36 43 31 27 13 344 334 343 347 345 348 359
173 165 131 118 99 87 90 85 82 65 58 70 78 68 64 55 53 56 56 46 56 78 64 51 47 45 64 64 48 47 40 30 27 37 12 31 15 350 329 331 338 346 349
160 155 139 129 126 127 107 78 78 72 75 75 76 68 57 56 61 62 58 53 60 70 72 64 52 56 61 56 45 51 46 48 35 36 37 34 24 10 334 320 337 344 342
147 145 131 126 125 123 114 102 82 70 67 61 76 68 64 80 91 82 65 67 64 79 75 64 56 49 59 62 55 58 51 54 44 38 38 33 32 30 18 337 339 336 345
137 138 123 117 115 119 115 117 121 115 110 116 115 101 96 88 83 75 78 71 64 74 60 58 54 61 59 nan 59 60 48 52 39 34 44 33 26 30 23 5 334 19 349
135 136 114 116 117 113 117 122 127 135 125 128 114 106 103 95 92 99 74 84 78 83 71 69 61 57 45 nan nan 49 44 25 26 49 43 37 29 24 17 28 8 351 2
nan 117 119 121 122 122 132 126 129 135 130 128 124 112 104 97 83 74 73 72 67 65 62 57 48 54 63 47 nan nan 44 45 49 nan 43 55 33 29 22 18 27 23 6
nan nan 117 119 120 135 130 128 131 131 126 118 118 104 106 105 81 67 54 48 53 50 42 39 31 34 47 43 28 nan nan 23 27 nan nan 50 47 36 30 14 nan 44 39
103 104 nan 113 116 132 124 115 118 135 129 125 119 89 57 64 56 57 58 47 34 36 18 23 14 20 15 36 34 26 24 24 22 27 17 18 42 34 32 22 22 32 39
94 92 nan 100 116 120 112 115 117 125 123 127 116 100 58 17 20 16 18 13 14 5 16 359 357 346 357 2 20 20 17 20 12 17 8 19 354 15 20 21 21 15 27
78 82 108 97 105 112 103 99 116 132 130 122 136 125 63 31 28 359 347 351 333 332 336 328 321 332 345 348 343 356 7 16 22 16 7 4 350 342 2 15 12 11 12
48 43 56 64 39 38 77 109 106 108 117 106 98 27 32 4 338 323 315 309 303 303 307 310 312 330 331 327 341 1 11 8 10 357 355 352 331 347 327 4 14 0 14
26 31 31 13 16 357 310 219 211 197 143 219 238 306 317 299 302 295 293 287 283 288 289 301 304 330 334 340 342 2 340 346 342 339 347 340 339 336 332 324 334 343 7
351 351 7 338 351 320 294 296 275 292 269 272 298 325 306 325 324 314 302 298 302 308 310 315 323 338 329 329 333 331 332 328 322 315 321 326 334 333 334 332 328 320 324
357 3 350 2 344 345 313 288 281 284 305 302 291 328 331 349 329 321 323 322 325 317 330 337 344 351 354 346 344 333 326 311 300 313 317 319 325 332 338 339 334 333 nan
39 32 25 22 13 2 340 250 222 220 207 302 307 298 345 349 325 318 321 320 325 335 351 358 20 23 18 345 334 329 321 323 317 316 327 329 331 327 335 337 336 336 323
54 45 37 17 10 4 325 290 305 327 331 325 318 335 342 328 318 317 317 314 324 2 30 36 37 21 4 357 341 350 335 296 281 289 311 319 316 326 328 326 330 330 320
69 54 45 34 27 349 322 325 14 59 56 48 31 24 0 331 325 323 323 326 342 9 28 39 37 27 47 53 14 12 6 350 321 276 312 324 330 345 340 329 330 324 329
68 65 52 45 48 39 24 36 42 47 45 50 52 45 31 19 0 346 340 349 19 25 33 42 44 41 34 27 19 16 24 31 32 349 11 357 341 351 349 335 329 334 331